Weather History for KAUW - June, 2014

Change the Weather History Date:

Sunday, June 8, 2014

  Actual Average Record
Temperature  
Mean Temperature 63 °F 63 °F  
Max Temperature 74 °F 74 °F 93 °F (2011)
Min Temperature 51 °F 52 °F 33 °F (1913)
Degree Days  
Heating Degree Days 2 4  
Month to date heating degree days 2 38  
Since 1 June heating degree days 2 38  
Since 1 July heating degree days 9320 8198  
Cooling Degree Days 0 2  
Month to date cooling degree days 21 11  
Year to date cooling degree days 46 30  
Since 1 June cooling degree days 21 11  
Growing Degree Days 12 (Base 50)    
Moisture  
Dew Point 45 °F    
Average Humidity 58    
Maximum Humidity 89    
Minimum Humidity 27    
Precipitation  
Precipitation 0.00 in 0.15 in 2.17 in (1993)
Month to date precipitation 2.13 1.16  
Year to date precipitation 13.57 11.07  
Snow  
Snow 0.00 in 0.00 in 0.00 in (2010)
Month to date snowfall 0.0 0.0  
Since 1 June snowfall 0.0  
Since 1 July snowfall 84.3 59.6  
Snow Depth 0.00 in    
Sea Level Pressure  
Sea Level Pressure 30.05 in    
Wind  
Wind Speed 6 mph (NNE)    
Max Wind Speed 13 mph    
Max Gust Speed 19 mph    
Visibility 10 miles    
Events      
T = Trace of Precipitation, MM = Missing Value Source: NWS Daily Summary

Daily Weather History Graph

Daily Weather History Graph

Search for Another Location

Airport or City:

Trip Planner

Search our weather history database for the weather conditions in past years. The results will help you decide how hot, cold, wet, or windy it might be!

Date:

Astronomy

Jun. 08, 2014 Rise Set
Actual Time 5:12 AM CDT 8:43 PM CDT
Civil Twilight 4:35 AM CDT 9:20 PM CDT
Nautical Twilight 3:46 AM CDT 10:08 PM CDT
Astronomical Twilight 2:44 AM CDT 11:12 PM CDT
Moon 3:50 PM CDT (6/8) 2:17 AM CDT (6/8)
Length of Visible Light 16h 44m
Length of Day
15h 30m
Waxing Gibbous, 77% of the Moon is Illuminated
Jun 8
Waxing Gibbous
Jun 12
Full
Jun 19
Last Quarter
Jun 27
New
Jul 5
First Quarter

Hourly Weather History & Observations

Time (CDT) Temp. Dew Point Humidity Pressure Visibility Wind Dir Wind Speed Gust Speed Precip Events Conditions
12:28 AM 55.9 °F 51.1 °F 84% 30.00 in 10.0 mi NNE 4.6 mph - N/A   Overcast
12:54 AM 55.9 °F 51.1 °F 84% 30.01 in 10.0 mi North 8.1 mph - N/A   Overcast
1:21 AM 55.9 °F 51.1 °F 84% 30.00 in 10.0 mi North 9.2 mph - N/A   Overcast
1:54 AM 55.9 °F 51.1 °F 84% 30.01 in 10.0 mi North 8.1 mph - N/A   Overcast
2:54 AM 55.0 °F 51.1 °F 86% 30.01 in 10.0 mi North 4.6 mph - N/A   Overcast
3:54 AM 54.0 °F 50.0 °F 86% 30.02 in 10.0 mi North 6.9 mph - N/A   Overcast
4:54 AM 52.0 °F 48.9 °F 89% 30.04 in 10.0 mi NNW 6.9 mph - N/A   Overcast
5:54 AM 51.1 °F 48.9 °F 92% 30.06 in 10.0 mi NNW 6.9 mph - N/A   Clear
6:54 AM 54.0 °F 48.0 °F 80% 30.07 in 10.0 mi North 6.9 mph - N/A   Clear
7:54 AM 57.0 °F 46.9 °F 69% 30.08 in 10.0 mi North 6.9 mph - N/A   Clear
8:54 AM 61.0 °F 46.0 °F 58% 30.09 in 10.0 mi North 10.4 mph 18.4 mph N/A   Clear
9:54 AM 64.9 °F 45.0 °F 48% 30.10 in 10.0 mi NNE 5.8 mph - N/A   Clear
10:54 AM 68.0 °F 42.1 °F 39% 30.09 in 10.0 mi NNW 5.8 mph - N/A   Clear
11:54 AM 69.1 °F 41.0 °F 36% 30.08 in 10.0 mi East 9.2 mph - N/A   Clear
12:54 PM 70.0 °F 39.0 °F 32% 30.09 in 10.0 mi NW 5.8 mph - N/A   Clear
1:54 PM 72.0 °F 37.9 °F 29% 30.07 in 10.0 mi Variable 3.5 mph - N/A   Clear
2:54 PM 72.0 °F 39.9 °F 31% 30.06 in 10.0 mi Variable 4.6 mph - N/A   Clear
3:54 PM 72.0 °F 39.0 °F 30% 30.04 in 10.0 mi Variable 4.6 mph - N/A   Clear
4:54 PM 73.0 °F 39.9 °F 30% 30.04 in 10.0 mi ENE 9.2 mph - N/A   Clear
5:54 PM 73.0 °F 37.9 °F 28% 30.04 in 10.0 mi Calm Calm - N/A   Clear
6:54 PM 73.0 °F 39.0 °F 29% 30.04 in 10.0 mi Variable 3.5 mph - N/A   Mostly Cloudy
7:54 PM 69.1 °F 42.1 °F 38% 30.04 in 10.0 mi East 3.5 mph - N/A   Clear
8:54 PM 64.0 °F 42.1 °F 45% 30.04 in 10.0 mi Calm Calm - N/A   Clear
9:54 PM 60.1 °F 46.9 °F 62% 30.05 in 10.0 mi Calm Calm - N/A   Clear
10:54 PM 59.0 °F 46.9 °F 64% 30.07 in 10.0 mi East 5.8 mph - N/A   Partly Cloudy
11:54 PM 59.0 °F 46.9 °F 64% 30.07 in 10.0 mi East 10.4 mph - N/A   Clear